Tracking 25734 objects as of 28-May-2022
HD Live streaming from Space Station
objects crossing your sky now

COSMOS 1275 DEB

Track COSMOS 1275 DEB now!
10-day predictions


NORAD ID: 42102
Int'l Code: 1981-053PN
Perigee: 905.7 km
Apogee: 1,014.0 km
Inclination: 83.0 °
Period: 104.1 minutes
Semi major axis: 7330 km
RCS: Unknown
Launch date: June 4, 1981
Source: Commonwealth of Independent States (former USSR) (CIS)
Launch site: PLESETSK MISSILE AND SPACE COMPLEX (PKMTR)

Note: This is SATELLITE DEBRIS
aabbcc
Your satellite tracking list
Your tracking list is empty




NASA's NSSDC Master Catalog

Two Line Element Set (TLE):
1 42102U 81053PN  22146.53505298  .00001167  00000-0  10293-2 0  9990
2 42102  83.0138  81.1183 0073902 161.5851 198.8012 13.83151595429201
Source of the keplerian elements: AFSPC